Weather observations for the past three days for
Albany International Airport
Imperial (Metric)
Date Time (edt) Wind (mph) Vis. (mi.) Weather Sky Cond. Temperature (ºF) Relative Humidity Wind Chill (°F) Heat Index (°F) Pressure Precipitation (in)
Air Dwpt 6 hour altimeter (in) sea level (mb) 1 hr 3 hr 6 hr
Max. Min.
14 08:51 S 9 10.00 Overcast BKN100 OVC140 72 63 73% 29.84 1010.4
14 07:51 S 8 10.00 Overcast FEW070 SCT120 OVC150 71.1 63 72 70 76% 29.84 1010.3
14 06:51 SE 8 10.00 Light Rain FEW050 SCT070 BKN110 OVC130 70 63 79% 29.82 1009.8
14 05:51 SE 7 10.00 Light Rain FEW050 BKN085 OVC110 70 62.1 76% 29.83 1009.9
14 04:51 W 5 10.00 Mostly Cloudy FEW050 SCT090 BKN100 70 61 73% 29.84 1010.2
14 03:51 S 15 G 23 10.00 Mostly Cloudy BKN130 71.1 60.1 68% 29.81 1009.1
14 02:51 S 12 G 21 10.00 Partly Cloudy SCT110 71.1 59 66% 29.82 1009.5
14 01:51 S 10 G 22 10.00 A Few Clouds FEW250 72 57.9 82.9 72 61% 29.83 1010.0
14 00:51 S 13 G 21 10.00 A Few Clouds FEW250 73 57 57% 29.85 1010.7
13 23:51 S 9 10.00 A Few Clouds FEW160 FEW250 73.9 57 56% 29.87 1011.4
13 22:51 S 12 G 21 10.00 Partly Cloudy FEW160 SCT250 75.9 57 52% 78 29.88 1011.6
13 21:51 S 9 10.00 Partly Cloudy FEW160 SCT250 78.1 55.9 47% 79 29.87 1011.4
13 20:51 S 8 10.00 Mostly Cloudy BKN250 80.1 55.9 44% 80 29.86 1010.9
13 19:51 S 13 G 23 10.00 Mostly Cloudy BKN250 82.9 55.9 86 82.9 40% 82 29.86 1011.1
13 18:51 S 12 10.00 Partly Cloudy FEW060 FEW090 FEW110 SCT250 84.9 57 39% 84 29.86 1011.1
13 17:51 SE 13 G 24 10.00 Mostly Cloudy FEW060 SCT090 BKN250 84.9 55.9 37% 84 29.88 1011.6
13 16:51 S 13 10.00 Mostly Cloudy FEW060 FEW220 BKN250 86 57 37% 85 29.88 1011.7
13 15:51 S 10 G 21 10.00 Partly Cloudy FEW060 FEW220 SCT250 86 57 37% 85 29.9 1012.2
13 14:51 S 10 10.00 A Few Clouds FEW060 FEW220 FEW250 84.9 57.9 40% 84 29.92 1013.1
13 13:51 Vrbl 3 10.00 A Few Clouds FEW055 FEW220 FEW250 82.9 55.9 82.9 61 40% 82 29.94 1013.6
13 12:51 SE 8 10.00 A Few Clouds FEW050 FEW250 80.1 57 45% 80 29.95 1014.3
13 11:51 SE 7 10.00 Mostly Cloudy FEW045 BKN250 77 57 50% 79 29.97 1014.8
13 10:51 S 7 10.00 Mostly Cloudy BKN250 73 55.9 55% 29.98 1015.2
13 09:51 Vrbl 5 10.00 Mostly Cloudy BKN250 69.1 55.9 63% 30 1015.9
13 08:51 Calm 10.00 Mostly Cloudy BKN250 66 55 68% 30.01 1016.3
13 07:51 S 5 10.00 Partly Cloudy SCT250 61 54 61 51.1 78% 30.02 1016.5
13 06:51 Calm 10.00 Fog in Vicinity FEW250 57 53.1 87% 30.02 1016.4
13 05:51 Calm 10.00 Fog in Vicinity SCT250 52 48.9 89% 30.01 1016.3
13 04:51 Calm 10.00 A Few Clouds FEW250 52 50 93% 30 1016.0
13 03:51 S 3 10.00 A Few Clouds FEW250 53.1 48.9 86% 29.99 1015.4
13 02:51 Calm 10.00 A Few Clouds FEW200 53.1 50 89% 30 1015.8
13 01:51 Calm 10.00 A Few Clouds FEW200 53.1 50 66.9 53.1 89% 30 1015.9
13 00:51 Calm 10.00 A Few Clouds FEW200 55 51.1 87% 30 1015.9
12 23:51 Calm 10.00 Fair CLR 55.9 51.1 84% 30.01 1016.2
12 22:51 Calm 10.00 Fair CLR 59 51.1 75% 30.02 1016.4
12 21:51 Calm 10.00 A Few Clouds FEW050 FEW250 62.1 51.1 67% 30.01 1016.3
12 20:51 SW 5 10.00 A Few Clouds FEW050 FEW250 63 51.1 65% 30 1015.8
12 19:51 W 7 10.00 Mostly Cloudy FEW045 BKN055 BKN250 66.9 50 73.9 66.9 55% 30 1015.9
12 18:51 W 12 10.00 Mostly Cloudy FEW045 SCT055 BKN250 70 50 49% 29.99 1015.6
12 17:51 SW 8 G 18 10.00 Mostly Cloudy FEW045 FEW055 BKN250 73 50 44% 29.99 1015.4
12 16:51 W 8 10.00 Mostly Cloudy FEW045 FEW055 BKN250 72 51.1 48% 30 1015.7
12 15:51 W 9 10.00 Mostly Cloudy FEW044 BKN055 BKN250 70 51.1 51% 30.01 1016.0
12 14:51 W 7 10.00 Mostly Cloudy FEW044 BKN050 BKN250 71.1 52 51% 30.01 1016.2
12 13:51 W 7 10.00 Mostly Cloudy FEW045 BKN060 BKN250 72 52 72 62.1 50% 30.02 1016.6
12 12:51 W 8 10.00 Mostly Cloudy FEW035 BKN047 BKN060 68 53.1 59% 30.04 1017.3
12 11:51 Vrbl 5 10.00 Mostly Cloudy SCT033 BKN055 72 54 53% 30.04 1017.2
12 10:51 NW 7 10.00 Partly Cloudy FEW024 SCT039 SCT250 69.1 55 61% 30.05 1017.4
12 09:51 N 5 10.00 Mostly Cloudy BKN021 BKN065 64.9 54 68% 30.06 1017.7
12 08:51 NW 7 10.00 Mostly Cloudy FEW022 FEW037 BKN060 64 55 73% 30.05 1017.5
12 07:51 NW 5 10.00 Mostly Cloudy FEW018 BKN030 BKN060 62.1 54 62.1 55.9 75% 30.05 1017.7
12 06:51 Calm 10.00 Overcast BKN028 OVC060 59 54 83% 30.05 1017.4
12 05:51 N 5 10.00 Overcast OVC060 57.9 53.1 84% 30.03 1016.8
12 04:51 Calm 10.00 Overcast OVC055 57.9 52 81% 30.02 1016.6
12 03:51 Calm 10.00 Mostly Cloudy BKN060 55.9 51.1 84% 30.02 1016.5
12 02:51 Calm 10.00 Mostly Cloudy BKN070 59 52 78% 30.02 1016.5
12 01:51 Calm 10.00 Overcast OVC070 59 52 66 59 78% 30.02 1016.6
12 00:51 Calm 10.00 Overcast OVC065 59 52 78% 30.02 1016.5
11 23:51 SW 5 10.00 Overcast OVC065 59 52 78% 30.02 1016.4
11 22:51 Calm 10.00 Overcast OVC060 62.1 52 70% 30.01 1016.0
11 21:51 W 6 10.00 Mostly Cloudy BKN055 63 52 68% 30 1015.9
11 20:51 W 7 10.00 Mostly Cloudy BKN055 64 52 65% 29.98 1015.1
11 19:51 NW 5 10.00 Mostly Cloudy SCT032 BKN060 66 53.1 68 64.9 63% 29.97 1014.8
11 18:51 NW 5 10.00 Mostly Cloudy BKN060 66.9 53.1 61% 29.96 1014.6
11 17:51 Calm 10.00 Mostly Cloudy BKN060 66.9 53.1 61% 29.96 1014.4
11 16:51 N 5 10.00 Overcast OVC045 66 53.1 63% 29.96 1014.3
11 15:51 NE 5 10.00 Overcast FEW032 OVC042 66 54 65% 29.96 1014.5
11 14:51 Calm 10.00 Overcast SCT028 OVC040 64.9 51.1 61% 29.96 1014.5
11 13:51 Calm 10.00 Overcast SCT030 OVC044 66 53.1 66 61 63% 29.96 1014.4
11 12:51 NW 6 10.00 Overcast FEW027 BKN033 OVC048 66 52 61% 29.95 1014.1
11 11:51 SW 5 10.00 Overcast BKN025 OVC048 64.9 52 63% 29.95 1014.1
11 10:51 W 6 10.00 Overcast SCT020 OVC046 63 52 68% 29.94 1013.9
11 09:51 W 5 10.00 Overcast SCT020 OVC041 62.1 52 70% 29.94 1013.9
Date Time (edt) Wind (mph) Vis. (mi.) Weather Sky Cond. Air Dwpt Max. Min. Relative Humidity Wind Chill (°F) Heat Index (°F) altimeter (in) sea level (mb) 1 hr 3 hr 6 hr
6 hour
Temperature (ºF) Pressure Precipitation (in)